Regional Weather Roundup
Issued by NWS

Home | Current Version | Previous Version | Graphics & Text | Print | Product List | Glossary On
Versions: 1 2 3 4 5 6 7 8 9 10 11 12 13 14 15 16 17 18 19 20 21 22 23 24 25 26 27 28 29 30 31 32 33 34 35 36 37 38 39 40 41 42 43 44 45 46 47 48 49 50
000
ASUS43 KDTX 032210
RWRMI
MICHIGAN HOURLY REGIONAL WEATHER ROUNDUP
NATIONAL WEATHER SERVICE DETROIT/PONTIAC MI
600 PM EDT TUE MAY 03 2016

NOTE: "FAIR" INDICATES FEW OR NO CLOUDS BELOW 12,000 FEET WITH NO
SIGNIFICANT WEATHER AND/OR OBSTRUCTION TO VISIBILITY.

MIZ047>049-052>055-059>063-066>070-074>076-081>083-032300-
SOUTHEAST LOWER MICHIGAN

CITY           SKY/WX    TMP DP  RH WIND       PRES   REMARKS
ADRIAN         CLOUDY    62  35  36 W7        29.82S
ALMA           PTSUNNY   64  33  31 SW13G23   29.76S
ANN ARBOR      PTSUNNY   61  34  36 SW9       29.80S
BAD AXE        MOSUNNY   65  35  32 SW8G18    29.74F
CARO           MOSUNNY   64  38  38 SW12      29.75S
DETROIT CITY   PTSUNNY   61  42  49 S13       29.80F
DETROIT        PTSUNNY   60  42  51 S14       29.81F
FLINT          PTSUNNY   67  36  31 W10       29.77F
GROSSE ILE     MOSUNNY   55  48  76 S10       29.81S
HILLSDALE      PTSUNNY   60  29  30 W9        29.81F
HOWELL         PTSUNNY   62  35  36 SW8       29.79S

CITY           SKY/WX    TMP DP  RH WIND       PRES   REMARKS
JACKSON        PTSUNNY   61  35  37 W8        29.80S
LAMBERTVILLE   CLOUDY    62  45  52 S6        29.82S
LANSING        CLOUDY    63  34  33 W13G22    29.79F
LAPEER         PTSUNNY   65  31  28 W7        29.77F
MASON          PTSUNNY   65  36  34 SW9G21    29.79
MONROE         PTSUNNY   60  47  61 S13       29.81S
MT. CLEMENS    SUNNY     60  45  57 S12       29.79F
PONTIAC        PTSUNNY   61  34  36 W3        29.78S
PORT HOPE        N/A     59  37  44 SE15      29.72F
PORT HURON     MOSUNNY   63  37  39 S8        29.79S
TRI CITIES     PTSUNNY   67  35  30 SW15      29.74F
MIDLAND        PTSUNNY   66  35  32 SW14G20   29.72F
TROY           PTSUNNY   62  42  47 S9        29.81S
SAGINAW HB     MOSUNNY   64  32  29 SW12G17   29.74F
$$
MIZ043>046-050>051-056>058-064>065-071>073-077>080-032300-
SOUTHWEST LOWER MICHIGAN

CITY           SKY/WX    TMP DP  RH WIND       PRES   REMARKS
BATTLE CREEK   PTSUNNY   64  34  32 NW13      29.81F
BENTON HARBOR  PTSUNNY   62  36  37 SW8       29.82F
BIG RAPIDS     PTSUNNY   63  32  31 W13G21    29.74S
COLDWATER      CLOUDY    63  36  36 W7        29.81F
FREMONT        FAIR      60  32  34 SW13      29.76F
HOLLAND        PTSUNNY   62  37  39 SW12      29.80F
GRAND RAPIDS   MOSUNNY   65  35  33 W14       29.79F
IONIA          FAIR      64  32  30 W14       29.77F
KALAMAZOO      MOSUNNY   63  34  33 W9        29.81F
LUDINGTON      CLOUDY    58  39  48 S17G26    29.74S
MARSHALL       CLOUDY    62  36  38 SW9       29.79F
MOUNT PLEASANT PTSUNNY   65  35  32 W16G24    29.73S
MUSKEGON       PTSUNNY   58  35  42 S13       29.78F
SOUTH HAVEN    CLOUDY    62  31  31 W9        29.81F
$$
MIZ016>042-032300-
NORTHERN LOWER MICHIGAN

CITY           SKY/WX    TMP DP  RH WIND       PRES   REMARKS
ALPENA         CLOUDY    67  29  24 W7        29.66F
BEAVER ISLAND  DRIZZLE   46  40  79 SW7       29.71R
BELLAIRE       CLOUDY    65  32  28 SW5       29.68S
CADILLAC       CLOUDY    62  30  29 SW9G23    29.71S
CHARLEVOIX     CLOUDY    58  37  43 W13G23    29.71R
FRANKFORT      CLOUDY    56  40  55 S16G28    29.70F
GAYLORD        PTSUNNY   64  27  24 SW21G26   29.68F
GRAYLING       MOSUNNY   64  30  27 SW13G24   29.70S
HARBOR SPRINGS CLOUDY    58  35  42 SW8       29.67S
HOUGHTON LAKE  CLOUDY    63  34  33 SW13      29.70F
MANISTEE       CLOUDY    63  36  36 SW14G20   29.72S
OSCODA         PTSUNNY   64  34  32 S14G22    29.70F
PELLSTON       CLOUDY    63  32  31 SW12      29.67S
ROGERS CITY    CLOUDY    62  33  33 SE6       29.67S
TRAVERSE CITY  CLOUDY    67  32  27 SW12G22   29.67F
$$
MIZ007>008-015-032300-
EASTERN UPPER MICHIGAN

CITY           SKY/WX    TMP DP  RH WIND       PRES   REMARKS
KINROSS          N/A     55  36  47 W10G17    29.67R
MACKINAC ISLAN CLOUDY    56  35  45 SW6       29.65S
NEWBERRY       LGT RAIN  49  46  89 SW8       29.67S
S. S. MARIE    LGT RAIN  53  38  56 NW12      29.67R
MUNISING         N/A     51  47  86 S6        29.64F
$$
MIZ004>006-011>014-085-032300-
CENTRAL UPPER MICHIGAN

CITY           SKY/WX    TMP DP  RH WIND       PRES   REMARKS
MANISTIQUE     LGT RAIN  50  48  91 W8        29.68S
ESCANABA       CLOUDY    52  46  82 NW9       29.69R
MENOMINEE      LGT RAIN  63  37  38 N7        29.66
SAWYER-GWINN   PTSUNNY   52  46  82 W9        29.66S
$$
MIZ001>003-009>011-084-032300-
WESTERN UPPER MICHIGAN

CITY           SKY/WX    TMP DP  RH WIND       PRES   REMARKS
IRON MOUNTAIN  LGT RAIN  51  46  83 W6        29.67F
HOUGHTON       CLOUDY    49  44  83 NW5       29.65S
COPPER HARBOR    N/A     47  42  83 N8        29.64F
IRONWOOD         N/A     55  37  50 N12G18    29.65R
$$

ABBREVIATIONS USED IN REMARKS
   TC - TEMPERATURE IN CELSIUS
  WCI - WIND CHILL INDEX
   HX - HEAT INDEX
  VSB - VISIBILITY





USA.gov is the U.S. government's official web portal to all federal, state and local government web resources and services.